Retour au catalogue

KUIPER-00263

ActifCommunicationsLEO
NORAD 68586·PAYLOAD·🇺🇸 United States

Lancé Apr 4, 2026 depuis Cape Canaveral Space Force Station

Loading…

Prochains Passages (prochaines 24 heures)

TLE

FraisSource: CelesTrak SupGP

Époque: Sep 14, 2026, 23:06 UTC

1 68586C 26072P   26257.96269676  .00004808  00000+0  62933-3 0  2575
2 68586  51.9001 133.7648 0000820 100.3042  67.0861 14.79931647    13

Suivez KUIPER-00263 en temps réel avec AllMySat

Download on the App Store